User: anonymous   Login
Location: ?????????
(38.0736°N, 23.2119°E)
Time: 01:07:04
(UTC+00:00)
Language:

Cosmos 2151 Rocket - Orbit

View from above orbital plane
View from above orbital plane
View from above satellite
View from above satellite

Ground track
Ground track

The orbit data is extracted from the following two-line orbital elements,

1 21423U 91042B   24175.23847408  .00000537  00000-0  66432-4 0  9993
2 21423  82.4939  85.3878 0018471 128.6860 231.6010 14.80801924760621
Epoch (UTC): 23 June 2024 05:43:24
Eccentricity: 0.0018471
inclination: 82.4939°
perigee height: 614 km
apogee height: 640 km
right ascension of ascending node: 85.3878°
argument of perigee: 128.6860°
revolutions per day: 14.80801924
mean anomaly at epoch: 231.6010°
orbit number at epoch: 76062

The dashed part of the orbit path shows where the satellite is in the earth's shadow,  

DLR